N56LP KSGR-KOPF

Flight info

Callsign N56LP
Flight time 2h 4m
Altitude 41000
Route MMALT7 LLA LEV Y280 REDFN Q100 REMIS GAWKS CUURT1
Aircraft C56X/M-SDFGLM3ORVWY/SB1

Departure

Time 2026-04-24 02:07
Airport Sugar Land Regional Airport (KSGR)

Arrival

Time 2026-04-24 04:11
Airport Miami-Opa Locka Executive Airport (KOPF)
Time Latitude Longitude Altitude Speed Heading
2026-04-24 01:54 29.62882 -95.65569 83 ft 0 kts 174°
2026-04-24 02:04 29.62878 -95.65569 83 ft 3 kts 178°
2026-04-24 02:04 29.62877 -95.65609 83 ft 7 kts 307°
2026-04-24 02:04 29.62900 -95.65656 83 ft 6 kts 354°
2026-04-24 02:05 29.62949 -95.65660 83 ft 7 kts 354°
2026-04-24 02:05 29.63024 -95.65668 83 ft 15 kts 355°
2026-04-24 02:05 29.63166 -95.65682 83 ft 22 kts 355°
2026-04-24 02:05 29.63286 -95.65696 83 ft 9 kts 337°
2026-04-24 02:06 29.63291 -95.65698 83 ft 2 kts 326°
2026-04-24 02:06 29.63246 -95.65749 83 ft 21 kts 172°
2026-04-24 02:06 29.62937 -95.65720 83 ft 121 kts 173°
2026-04-24 02:06 29.61711 -95.65627 661 ft 201 kts 175°
2026-04-24 02:07 29.60178 -95.65533 1960 ft 248 kts 175°
2026-04-24 02:07 29.58926 -95.65453 2229 ft 260 kts 175°
2026-04-24 02:07 29.57655 -95.65371 3014 ft 247 kts 175°
2026-04-24 02:07 29.55971 -95.65290 4062 ft 232 kts 177°
2026-04-24 02:08 29.54439 -95.65197 5208 ft 213 kts 173°
2026-04-24 02:08 29.52972 -95.64778 5769 ft 222 kts 159°
2026-04-24 02:08 29.51581 -95.63911 6340 ft 229 kts 144°
2026-04-24 02:08 29.50427 -95.62653 7000 ft 239 kts 126°
2026-04-24 02:09 29.49602 -95.60905 7602 ft 255 kts 107°
2026-04-24 02:09 29.49385 -95.58847 8336 ft 262 kts 86°
2026-04-24 02:09 29.49510 -95.56685 9087 ft 277 kts 86°
2026-04-24 02:09 29.49739 -95.54342 9962 ft 297 kts 82°
2026-04-24 02:10 29.49886 -95.51927 10760 ft 308 kts 85°
2026-04-24 02:10 29.50034 -95.49369 11412 ft 321 kts 85°
2026-04-24 02:10 29.50188 -95.46750 12070 ft 330 kts 85°
2026-04-24 02:10 29.50348 -95.44136 13054 ft 327 kts 84°
2026-04-24 02:11 29.50509 -95.41531 14033 ft 323 kts 84°
2026-04-24 02:11 29.50669 -95.38982 14882 ft 323 kts 84°
2026-04-24 02:11 29.50833 -95.36359 15762 ft 321 kts 84°
2026-04-24 02:11 29.50996 -95.33751 16635 ft 319 kts 84°
2026-04-24 02:12 29.51161 -95.31115 17393 ft 321 kts 83°
2026-04-24 02:12 29.51324 -95.28516 18141 ft 321 kts 83°
2026-04-24 02:12 29.51486 -95.25911 18899 ft 325 kts 83°
2026-04-24 02:12 29.51651 -95.23311 19646 ft 332 kts 83°
2026-04-24 02:13 29.51806 -95.20821 20350 ft 337 kts 83°
2026-04-24 02:13 29.51972 -95.18147 21095 ft 342 kts 83°
2026-04-24 02:14 29.52142 -95.15414 21852 ft 345 kts 82°
2026-04-24 02:14 29.52313 -95.12620 22622 ft 347 kts 83°
2026-04-24 02:14 29.52484 -95.09827 23390 ft 348 kts 83°
2026-04-24 02:14 29.52656 -95.07012 24123 ft 348 kts 82°
2026-04-24 02:15 29.52826 -95.04214 24840 ft 348 kts 82°
2026-04-24 02:15 29.52993 -95.01458 25538 ft 347 kts 81°
2026-04-24 02:15 29.53159 -94.98693 26238 ft 346 kts 81°
2026-04-24 02:15 29.53324 -94.95950 26989 ft 343 kts 81°
2026-04-24 02:16 29.53487 -94.93208 27747 ft 339 kts 79°
2026-04-24 02:16 29.53646 -94.90543 28496 ft 335 kts 79°
2026-04-24 02:16 29.53802 -94.87893 29251 ft 329 kts 78°
2026-04-24 02:16 29.53955 -94.85296 30020 ft 321 kts 77°
2026-04-24 02:17 29.54104 -94.82750 30793 ft 312 kts 76°
2026-04-24 02:17 29.54245 -94.80314 31558 ft 300 kts 76°
2026-04-24 02:17 29.54379 -94.77988 32330 ft 285 kts 74°
2026-04-24 02:17 29.54511 -94.75745 33119 ft 287 kts 73°
2026-04-24 02:18 29.54653 -94.73434 33956 ft 290 kts 73°
2026-04-24 02:18 29.54794 -94.71101 34570 ft 296 kts 73°
2026-04-24 02:18 29.54937 -94.68687 35134 ft 304 kts 73°
2026-04-24 02:18 29.55082 -94.66230 35666 ft 312 kts 73°
2026-04-24 02:19 29.55230 -94.63689 36216 ft 320 kts 73°
2026-04-24 02:19 29.55378 -94.61131 36752 ft 327 kts 73°
2026-04-24 02:19 29.55530 -94.58488 37287 ft 335 kts 74°
2026-04-24 02:19 29.55685 -94.55759 37852 ft 341 kts 73°
2026-04-24 02:20 29.55840 -94.53040 38414 ft 347 kts 74°
2026-04-24 02:20 29.56000 -94.50201 39003 ft 353 kts 74°
2026-04-24 02:20 29.56160 -94.47360 39572 ft 357 kts 73°
2026-04-24 02:20 29.56322 -94.44477 40142 ft 361 kts 73°
2026-04-24 02:21 29.56484 -94.41576 40713 ft 364 kts 74°
2026-04-24 02:21 29.56654 -94.38597 40916 ft 380 kts 75°
2026-04-24 02:21 29.56833 -94.35464 40936 ft 401 kts 76°
2026-04-24 02:21 29.57022 -94.32098 40921 ft 421 kts 77°
2026-04-24 02:22 29.57211 -94.28665 40924 ft 440 kts 77°
2026-04-24 02:22 29.57407 -94.25100 40923 ft 457 kts 77°
2026-04-24 02:22 29.57608 -94.21372 40918 ft 469 kts 78°
2026-04-24 02:22 29.57813 -94.17544 40914 ft 478 kts 78°
2026-04-24 02:23 29.58276 -94.10013 40913 ft 464 kts 77°
2026-04-24 02:23 29.58707 -94.02641 40919 ft 469 kts 76°
2026-04-24 02:24 29.59145 -93.95044 40919 ft 477 kts 77°
2026-04-24 02:24 29.59543 -93.87399 40918 ft 478 kts 77°
2026-04-24 02:25 29.59932 -93.79816 40920 ft 477 kts 77°
2026-04-24 02:25 29.60318 -93.72177 40923 ft 475 kts 77°
2026-04-24 02:26 29.60698 -93.64593 40919 ft 473 kts 77°
2026-04-24 02:26 29.61077 -93.57031 40922 ft 475 kts 77°
2026-04-24 02:27 29.61453 -93.49391 40922 ft 473 kts 77°
2026-04-24 02:27 29.61817 -93.41876 40923 ft 471 kts 77°
2026-04-24 02:28 29.62186 -93.34260 40918 ft 473 kts 77°
2026-04-24 02:28 29.62547 -93.26672 40912 ft 473 kts 77°
2026-04-24 02:29 29.62905 -93.19074 40923 ft 473 kts 77°
2026-04-24 02:29 29.63253 -93.11543 40932 ft 470 kts 77°
2026-04-24 02:30 29.63604 -93.03951 40932 ft 472 kts 77°
2026-04-24 02:30 29.63950 -92.96362 40935 ft 474 kts 78°
2026-04-24 02:31 29.64288 -92.88728 40937 ft 472 kts 77°
2026-04-24 02:31 29.64623 -92.81110 40940 ft 472 kts 78°
2026-04-24 02:32 29.64955 -92.73488 40942 ft 472 kts 77°
2026-04-24 02:32 29.65278 -92.65873 40947 ft 469 kts 77°
2026-04-24 02:33 29.65602 -92.58298 40948 ft 470 kts 77°
2026-04-24 02:33 29.65916 -92.50777 40951 ft 469 kts 78°
2026-04-24 02:34 29.66224 -92.43212 40952 ft 469 kts 78°
2026-04-24 02:34 29.65900 -92.35588 40938 ft 479 kts 89°
2026-04-24 02:35 29.64588 -92.27877 40942 ft 483 kts 96°
2026-04-24 02:35 29.63066 -92.20300 40937 ft 482 kts 96°
2026-04-24 02:36 29.61510 -92.12772 40938 ft 482 kts 97°
2026-04-24 02:36 29.59948 -92.05262 40935 ft 481 kts 97°
2026-04-24 02:37 29.58376 -91.97733 40941 ft 482 kts 97°
2026-04-24 02:37 29.56804 -91.90208 40941 ft 482 kts 97°
2026-04-24 02:38 29.55232 -91.82714 40948 ft 481 kts 97°
2026-04-24 02:38 29.53656 -91.75231 40948 ft 481 kts 97°
2026-04-24 02:39 29.52075 -91.67747 40953 ft 479 kts 97°
2026-04-24 02:39 29.50498 -91.60293 40953 ft 480 kts 97°
2026-04-24 02:40 29.48916 -91.52843 40958 ft 478 kts 97°
2026-04-24 02:40 29.47327 -91.45382 40963 ft 478 kts 97°
2026-04-24 02:41 29.45744 -91.37954 40963 ft 477 kts 97°
2026-04-24 02:41 29.44138 -91.30453 40952 ft 478 kts 98°
2026-04-24 02:42 29.42526 -91.22945 40955 ft 477 kts 98°
2026-04-24 02:42 29.40927 -91.15523 40956 ft 476 kts 98°
2026-04-24 02:43 29.39322 -91.08087 40950 ft 477 kts 98°
2026-04-24 02:43 29.37722 -91.00704 40958 ft 475 kts 98°
2026-04-24 02:44 29.36129 -90.93373 40963 ft 475 kts 98°
2026-04-24 02:44 29.34508 -90.85931 40962 ft 475 kts 98°
2026-04-24 02:45 29.32885 -90.78510 40972 ft 474 kts 98°
2026-04-24 02:45 29.31267 -90.71136 40981 ft 472 kts 98°
2026-04-24 02:46 29.29668 -90.63862 40985 ft 471 kts 98°
2026-04-24 02:46 29.28053 -90.56533 40984 ft 469 kts 98°
2026-04-24 02:47 29.26448 -90.49259 40982 ft 470 kts 98°
2026-04-24 02:47 29.24824 -90.41929 40985 ft 469 kts 98°
2026-04-24 02:48 29.23204 -90.34638 40985 ft 468 kts 99°
2026-04-24 02:48 29.21590 -90.27400 40974 ft 468 kts 99°
2026-04-24 02:49 29.19975 -90.20162 40982 ft 467 kts 99°
2026-04-24 02:49 29.18362 -90.12950 40978 ft 468 kts 99°
2026-04-24 02:50 29.16779 -90.05752 40982 ft 467 kts 98°
2026-04-24 02:50 29.15318 -89.98504 40990 ft 466 kts 97°
2026-04-24 02:51 29.13874 -89.91278 40989 ft 464 kts 97°
2026-04-24 02:51 29.12414 -89.84062 40993 ft 464 kts 98°
2026-04-24 02:52 29.10945 -89.76894 40993 ft 462 kts 98°
2026-04-24 02:52 29.09471 -89.69717 40993 ft 461 kts 98°
2026-04-24 02:53 29.08001 -89.62590 40988 ft 461 kts 98°
2026-04-24 02:53 29.06519 -89.55421 40990 ft 460 kts 98°
2026-04-24 02:54 29.05038 -89.48282 40989 ft 460 kts 98°
2026-04-24 02:54 29.03555 -89.41157 40994 ft 458 kts 98°
2026-04-24 02:55 29.02078 -89.34084 40990 ft 456 kts 99°
2026-04-24 02:55 29.00599 -89.27008 40982 ft 456 kts 99°
2026-04-24 02:56 28.99108 -89.19895 40987 ft 455 kts 99°
2026-04-24 02:56 28.97616 -89.12799 40984 ft 454 kts 99°
2026-04-24 02:57 28.96242 -89.06283 40987 ft 454 kts 99°
2026-04-24 02:57 28.94750 -88.99241 40988 ft 451 kts 100°
2026-04-24 02:58 28.93271 -88.92276 40996 ft 450 kts 100°
2026-04-24 02:58 28.91790 -88.85296 40991 ft 452 kts 100°
2026-04-24 02:59 28.90307 -88.78333 40996 ft 451 kts 100°
2026-04-24 02:59 28.88811 -88.71337 40985 ft 452 kts 100°
2026-04-24 03:00 28.87133 -88.64402 40980 ft 453 kts 104°
2026-04-24 03:00 28.85177 -88.57545 40991 ft 454 kts 105°
2026-04-24 03:01 28.83223 -88.50724 40993 ft 452 kts 105°
2026-04-24 03:01 28.81301 -88.43906 40984 ft 452 kts 104°
2026-04-24 03:02 28.79395 -88.37088 40986 ft 453 kts 104°
2026-04-24 03:02 28.77470 -88.30195 40986 ft 453 kts 105°
2026-04-24 03:03 28.75567 -88.23387 40994 ft 453 kts 105°
2026-04-24 03:03 28.73651 -88.16547 40993 ft 453 kts 105°
2026-04-24 03:04 28.71729 -88.09708 40994 ft 452 kts 106°
2026-04-24 03:04 28.69805 -88.02873 41011 ft 452 kts 106°
2026-04-24 03:05 28.67875 -87.96034 40993 ft 452 kts 106°
2026-04-24 03:05 28.65945 -87.89204 41006 ft 452 kts 105°
2026-04-24 03:06 28.64006 -87.82362 41003 ft 452 kts 105°
2026-04-24 03:06 28.62075 -87.75559 41004 ft 451 kts 105°
2026-04-24 03:07 28.60138 -87.68756 41008 ft 451 kts 105°
2026-04-24 03:07 28.58198 -87.61955 40995 ft 450 kts 105°
2026-04-24 03:08 28.55286 -87.51766 40990 ft 451 kts 105°
2026-04-24 03:09 28.53334 -87.44955 40992 ft 451 kts 105°
2026-04-24 03:09 28.51387 -87.38178 40981 ft 450 kts 105°
2026-04-24 03:10 28.49433 -87.31393 40976 ft 449 kts 106°
2026-04-24 03:10 28.47479 -87.24618 40995 ft 448 kts 106°
2026-04-24 03:11 28.45534 -87.17884 40992 ft 449 kts 106°
2026-04-24 03:11 28.43578 -87.11135 40985 ft 449 kts 106°
2026-04-24 03:12 28.41616 -87.04375 40987 ft 448 kts 106°
2026-04-24 03:12 28.39651 -86.97613 40983 ft 449 kts 106°
2026-04-24 03:13 28.37699 -86.90916 40989 ft 449 kts 106°
2026-04-24 03:13 28.35731 -86.84182 40992 ft 448 kts 106°
2026-04-24 03:14 28.33771 -86.77487 40987 ft 448 kts 106°
2026-04-24 03:14 28.31802 -86.70776 40983 ft 448 kts 106°
2026-04-24 03:15 28.29843 -86.64071 41001 ft 447 kts 105°
2026-04-24 03:15 28.27878 -86.57330 41007 ft 448 kts 105°
2026-04-24 03:16 28.25924 -86.50642 41012 ft 447 kts 105°
2026-04-24 03:16 28.23965 -86.43950 40997 ft 448 kts 105°
2026-04-24 03:17 28.21987 -86.37206 41003 ft 448 kts 106°
2026-04-24 03:17 28.20014 -86.30505 41009 ft 447 kts 106°
2026-04-24 03:18 28.18042 -86.23821 41006 ft 447 kts 106°
2026-04-24 03:18 28.16064 -86.17126 40989 ft 446 kts 106°
2026-04-24 03:19 28.14094 -86.10464 40997 ft 447 kts 106°
2026-04-24 03:19 28.12107 -86.03760 41004 ft 447 kts 106°
2026-04-24 03:20 28.10121 -85.97081 41002 ft 446 kts 106°
2026-04-24 03:20 28.08137 -85.90419 41001 ft 447 kts 106°
2026-04-24 03:21 28.06144 -85.83739 41008 ft 448 kts 106°
2026-04-24 03:21 28.04143 -85.77042 41006 ft 448 kts 107°
2026-04-24 03:22 28.02138 -85.70349 40997 ft 448 kts 106°
2026-04-24 03:22 28.00123 -85.63638 41005 ft 449 kts 106°
2026-04-24 03:23 27.98117 -85.56976 41011 ft 448 kts 107°
2026-04-24 03:23 27.96102 -85.50298 41004 ft 447 kts 106°
2026-04-24 03:24 27.94084 -85.43610 41006 ft 449 kts 107°
2026-04-24 03:24 27.92069 -85.36948 41016 ft 449 kts 107°
2026-04-24 03:25 27.90032 -85.30226 41017 ft 449 kts 107°
2026-04-24 03:25 27.88000 -85.23550 41006 ft 449 kts 107°
2026-04-24 03:26 27.85912 -85.16891 41009 ft 450 kts 108°
2026-04-24 03:26 27.83793 -85.10201 41019 ft 450 kts 108°
2026-04-24 03:27 27.81685 -85.03535 41014 ft 451 kts 108°
2026-04-24 03:27 27.79570 -84.96852 41016 ft 451 kts 108°
2026-04-24 03:28 27.77463 -84.90202 41011 ft 451 kts 108°
2026-04-24 03:28 27.75332 -84.83491 41019 ft 452 kts 108°
2026-04-24 03:29 27.73216 -84.76839 41018 ft 451 kts 108°
2026-04-24 03:29 27.71090 -84.70164 41023 ft 452 kts 108°
2026-04-24 03:30 27.68962 -84.63499 41015 ft 452 kts 108°
2026-04-24 03:30 27.66825 -84.56816 41020 ft 452 kts 108°
2026-04-24 03:31 27.64698 -84.50182 41021 ft 452 kts 108°
2026-04-24 03:31 27.62546 -84.43474 41022 ft 453 kts 108°
2026-04-24 03:32 27.60409 -84.36829 41019 ft 453 kts 109°
2026-04-24 03:32 27.58237 -84.30088 41014 ft 453 kts 109°
2026-04-24 03:33 27.56084 -84.23419 41018 ft 453 kts 109°
2026-04-24 03:33 27.53907 -84.16686 41023 ft 453 kts 109°
2026-04-24 03:34 27.51756 -84.10042 41025 ft 455 kts 109°
2026-04-24 03:34 27.49706 -84.03731 41022 ft 454 kts 109°
2026-04-24 03:35 27.47526 -83.97027 41027 ft 455 kts 109°
2026-04-24 03:35 27.45313 -83.90241 41031 ft 454 kts 109°
2026-04-24 03:36 27.43136 -83.83575 41029 ft 454 kts 110°
2026-04-24 03:36 27.40930 -83.76824 41024 ft 455 kts 110°
2026-04-24 03:37 27.38713 -83.70061 41031 ft 455 kts 110°
2026-04-24 03:37 27.36507 -83.63345 41037 ft 456 kts 110°
2026-04-24 03:38 27.34426 -83.57014 41029 ft 457 kts 110°
2026-04-24 03:38 27.32194 -83.50237 41033 ft 457 kts 110°
2026-04-24 03:39 27.29988 -83.43562 41023 ft 458 kts 110°
2026-04-24 03:39 27.27771 -83.36856 41025 ft 458 kts 111°
2026-04-24 03:40 27.25535 -83.30106 41018 ft 458 kts 111°
2026-04-24 03:40 27.23292 -83.23351 41009 ft 458 kts 111°
2026-04-24 03:41 27.21160 -83.16933 41015 ft 460 kts 111°
2026-04-24 03:41 27.19000 -83.10139 41014 ft 460 kts 108°
2026-04-24 03:42 27.17293 -83.03120 41016 ft 462 kts 104°
2026-04-24 03:42 27.15881 -82.96036 41011 ft 463 kts 103°
2026-04-24 03:43 27.14494 -82.88895 40999 ft 464 kts 104°
2026-04-24 03:43 27.12272 -82.82131 41011 ft 465 kts 119°
2026-04-24 03:44 27.09278 -82.75521 40854 ft 476 kts 120°
2026-04-24 03:44 27.07741 -82.72213 40291 ft 459 kts 121°
2026-04-24 03:44 27.06233 -82.68968 39770 ft 449 kts 122°
2026-04-24 03:44 27.04846 -82.65984 39284 ft 444 kts 122°
2026-04-24 03:45 27.03404 -82.62878 38751 ft 439 kts 122°
2026-04-24 03:45 27.01984 -82.59814 38221 ft 436 kts 123°
2026-04-24 03:45 27.00733 -82.57116 37757 ft 433 kts 123°
2026-04-24 03:45 26.99803 -82.55111 37407 ft 430 kts 123°
2026-04-24 03:46 26.98771 -82.52885 37021 ft 428 kts 123°
2026-04-24 03:46 26.97351 -82.49824 36513 ft 425 kts 123°
2026-04-24 03:46 26.96010 -82.46935 36028 ft 422 kts 123°
2026-04-24 03:46 26.94628 -82.43960 35526 ft 419 kts 123°
2026-04-24 03:47 26.93553 -82.41646 35135 ft 417 kts 123°
2026-04-24 03:47 26.92180 -82.38692 34637 ft 414 kts 124°
2026-04-24 03:47 26.90845 -82.35820 34145 ft 411 kts 124°
2026-04-24 03:47 26.89479 -82.32887 33646 ft 408 kts 124°
2026-04-24 03:48 26.88147 -82.30026 33166 ft 406 kts 124°
2026-04-24 03:48 26.86905 -82.27361 32703 ft 404 kts 124°
2026-04-24 03:48 26.85587 -82.24536 32219 ft 402 kts 123°
2026-04-24 03:48 26.84293 -82.21763 31752 ft 400 kts 123°
2026-04-24 03:49 26.82993 -82.18979 31271 ft 398 kts 123°
2026-04-24 03:49 26.81671 -82.16151 30781 ft 396 kts 123°
2026-04-24 03:49 26.80528 -82.13706 30357 ft 395 kts 123°
2026-04-24 03:49 26.79206 -82.10880 29875 ft 393 kts 122°
2026-04-24 03:50 26.77891 -82.08073 29386 ft 392 kts 122°
2026-04-24 03:50 26.76929 -82.06019 29033 ft 391 kts 122°
2026-04-24 03:50 26.76257 -82.04585 28784 ft 390 kts 122°
2026-04-24 03:50 26.74995 -82.01891 28323 ft 389 kts 121°
2026-04-24 03:51 26.73737 -81.99211 27859 ft 389 kts 121°
2026-04-24 03:51 26.72438 -81.96444 27382 ft 388 kts 121°
2026-04-24 03:51 26.71159 -81.93721 26911 ft 388 kts 121°
2026-04-24 03:51 26.69874 -81.90990 26441 ft 387 kts 121°
2026-04-24 03:52 26.68638 -81.88361 25987 ft 387 kts 121°
2026-04-24 03:52 26.67485 -81.85908 25566 ft 386 kts 120°
2026-04-24 03:52 26.66357 -81.83514 25150 ft 386 kts 120°
2026-04-24 03:52 26.65072 -81.80785 24684 ft 386 kts 121°
2026-04-24 03:53 26.64620 -81.79826 24523 ft 385 kts 120°
2026-04-24 03:53 26.63818 -81.78138 24234 ft 386 kts 120°
2026-04-24 03:53 26.62550 -81.75450 23779 ft 386 kts 120°
2026-04-24 03:53 26.61287 -81.72765 23325 ft 386 kts 119°
2026-04-24 03:54 26.60634 -81.71378 23089 ft 386 kts 119°
2026-04-24 03:54 26.59484 -81.68940 22673 ft 387 kts 119°
2026-04-24 03:54 26.58503 -81.66861 22331 ft 386 kts 118°
2026-04-24 03:54 26.57228 -81.64161 21890 ft 385 kts 119°
2026-04-24 03:55 26.55940 -81.61439 21429 ft 385 kts 118°
2026-04-24 03:55 26.54651 -81.58713 20969 ft 384 kts 118°
2026-04-24 03:55 26.53380 -81.56028 20527 ft 382 kts 118°
2026-04-24 03:55 26.52100 -81.53326 20078 ft 380 kts 118°
2026-04-24 03:56 26.50838 -81.50670 19629 ft 379 kts 118°
2026-04-24 03:56 26.49584 -81.48024 19187 ft 377 kts 118°
2026-04-24 03:56 26.48337 -81.45403 18743 ft 376 kts 118°
2026-04-24 03:56 26.47081 -81.42758 18297 ft 375 kts 118°
2026-04-24 03:57 26.45843 -81.40153 17862 ft 374 kts 118°
2026-04-24 03:57 26.44617 -81.37575 17428 ft 373 kts 117°
2026-04-24 03:57 26.43369 -81.34956 16987 ft 372 kts 118°
2026-04-24 03:57 26.42144 -81.32385 16542 ft 371 kts 118°
2026-04-24 03:58 26.40909 -81.29793 16098 ft 369 kts 118°
2026-04-24 03:58 26.39692 -81.27241 15647 ft 368 kts 118°
2026-04-24 03:58 26.38475 -81.24689 15200 ft 366 kts 118°
2026-04-24 03:58 26.37259 -81.22144 14758 ft 365 kts 119°
2026-04-24 03:59 26.36055 -81.19624 14322 ft 364 kts 118°
2026-04-24 03:59 26.34860 -81.17124 13887 ft 363 kts 119°
2026-04-24 03:59 26.33642 -81.14578 13438 ft 363 kts 118°
2026-04-24 03:59 26.32452 -81.12092 12996 ft 362 kts 119°
2026-04-24 04:00 26.31236 -81.09552 12546 ft 361 kts 118°
2026-04-24 04:00 26.30036 -81.07047 12102 ft 361 kts 119°
2026-04-24 04:00 26.28836 -81.04545 11658 ft 360 kts 119°
2026-04-24 04:00 26.27640 -81.02048 11216 ft 360 kts 118°
2026-04-24 04:01 26.26443 -80.99557 10777 ft 360 kts 118°
2026-04-24 04:01 26.25243 -80.97059 10331 ft 360 kts 119°
2026-04-24 04:01 26.24046 -80.94566 9893 ft 359 kts 118°
2026-04-24 04:01 26.22835 -80.92048 9444 ft 359 kts 118°
2026-04-24 04:02 26.21650 -80.89584 8998 ft 359 kts 118°
2026-04-24 04:02 26.20464 -80.87119 8557 ft 358 kts 118°
2026-04-24 04:02 26.19256 -80.84611 8110 ft 357 kts 118°
2026-04-24 04:02 26.18066 -80.82141 7656 ft 355 kts 117°
2026-04-24 04:03 26.16887 -80.79696 7209 ft 354 kts 117°
2026-04-24 04:03 26.15710 -80.77256 6758 ft 353 kts 117°
2026-04-24 04:03 26.14523 -80.74810 6311 ft 352 kts 117°
2026-04-24 04:03 26.13352 -80.72390 5863 ft 350 kts 117°
2026-04-24 04:04 26.12173 -80.69957 5415 ft 349 kts 117°
2026-04-24 04:04 26.11021 -80.67576 4967 ft 347 kts 117°
2026-04-24 04:04 26.09860 -80.65178 4519 ft 345 kts 117°
2026-04-24 04:04 26.08717 -80.62817 4071 ft 344 kts 117°
2026-04-24 04:05 26.07566 -80.60441 3618 ft 342 kts 117°
2026-04-24 04:05 26.06427 -80.58091 3168 ft 341 kts 117°
2026-04-24 04:05 26.05278 -80.55720 2714 ft 339 kts 117°
2026-04-24 04:05 26.04135 -80.53364 2262 ft 338 kts 117°
2026-04-24 04:06 26.03022 -80.51070 2065 ft 330 kts 117°
2026-04-24 04:06 26.01937 -80.48837 2051 ft 321 kts 117°
2026-04-24 04:06 26.00863 -80.46629 2047 ft 314 kts 117°
2026-04-24 04:06 25.99803 -80.44447 2052 ft 311 kts 117°
2026-04-24 04:07 25.98697 -80.42351 2049 ft 305 kts 122°
2026-04-24 04:07 25.97572 -80.40589 1990 ft 229 kts 122°
2026-04-24 04:07 25.96895 -80.39349 1959 ft 154 kts 117°
2026-04-24 04:07 25.96429 -80.38456 1914 ft 121 kts 118°
2026-04-24 04:08 25.95926 -80.37566 1623 ft 137 kts 120°
2026-04-24 04:08 25.95397 -80.36651 1376 ft 138 kts 120°
2026-04-24 04:08 25.94908 -80.35789 1197 ft 117 kts 120°
2026-04-24 04:08 25.94496 -80.35052 1016 ft 116 kts 119°
2026-04-24 04:09 25.94025 -80.34208 1082 ft 141 kts 119°
2026-04-24 04:09 25.93521 -80.33268 1157 ft 138 kts 119°
2026-04-24 04:09 25.93016 -80.32389 945 ft 128 kts 120°
2026-04-24 04:09 25.92555 -80.31576 630 ft 122 kts 120°
2026-04-24 04:10 25.92117 -80.30779 439 ft 115 kts 121°
2026-04-24 04:10 25.91701 -80.30023 290 ft 111 kts 120°
2026-04-24 04:10 25.91293 -80.29295 138 ft 109 kts 121°
2026-04-24 04:11 25.90468 -80.27828 19 ft 168 kts 121°
2026-04-24 04:11 25.90100 -80.27153 12 ft 128 kts 118°